Regional Weather Roundup
Issued by NWS

Home | Current Version | Previous Version | Text Only | Print | Product List | Glossary Off
Versions: 1 2 3 4 5 6 7 8 9 10 11 12 13 14 15 16 17 18 19 20 21 22 23 24 25 26 27 28 29 30 31 32 33 34 35 36 37 38 39 40 41 42 43 44 45 46 47 48 49 50

000
ASUS43 KLMK 282110
RWRKY
KENTUCKY REGIONAL WEATHER ROUNDUP
NATIONAL WEATHER SERVICE LOUISVILLE KY
500 PM EDT SAT MAY 28 2016

NOTE "FAIR" INDICATES FEW OR NO CLOUDS BELOW 12,000 FEET
WITH NO SIGNIFICANT WEATHER AND/OR OBSTRUCTIONS TO VISIBILITY.

KYZ001>023-026-027-061>063-070>075-282200-
WESTERN AND SOUTH CENTRAL KENTUCKY

CITY           SKY/WX    TMP DP  RH WIND       PRES   REMARKS
PADUCAH        CLOUDY    83  65  54 SW7       30.01S
HENDERSON      CLOUDY    81  64  57 S15       30.01S
OWENSBORO      CLOUDY    80  67  64 S13       30.04S
HOPKINSVILLE   PTSUNNY   81  66  60 S8        30.05R
BOWLING GREEN  CLOUDY    79  68  69 S10       30.08F
GLASGOW        CLOUDY    74  65  73 S3        30.11R
$$

KYZ024-025-028>034-038-045-046-053-282200-
NORTH CENTRAL KENTUCKY

CITY           SKY/WX    TMP DP  RH WIND       PRES   REMARKS
LOUISVILLE/SDF PTSUNNY   81  66  60 S14       30.06S
LOUISVILLE/LOU CLOUDY    80  67  64 S9        30.07S
FORT KNOX      PTSUNNY   77  68  73 S8        30.06S
$$

KYZ035>037-039>044-047>052-055>060-089>105-282200-
NORTHEAST KENTUCKY

CITY           SKY/WX    TMP DP  RH WIND       PRES   REMARKS
LEXINGTON      SUNNY     84  60  44 SW12      30.10S
COVINGTON      PTSUNNY   83  64  52 S9        30.07F
FRANKFORT      MOSUNNY   85  59  41 SW16      30.07F
$$

KYZ054-064>069-076>088-106>120-282200-
SOUTHEAST KENTUCKY

CITY           SKY/WX    TMP DP  RH WIND       PRES   REMARKS
JACKSON        SUNNY     83  65  54 VRB3      30.12F
LONDON         SUNNY     82  61  48 CALM      30.11F
SOMERSET       MOSUNNY   82  61  47 SW6       30.11S
MIDDLESBORO    SUNNY     84  60  44 SW3       30.12S
MONTICELLO     PTCLDY    83  66  56 E7        30.11F
$$




USA.gov is the U.S. government's official web portal to all federal, state and local government web resources and services.